FREGAT DEB, 46238

Orbit data source: Space-Track

FREGAT DEB, 46238 is space debris in LEO originally from a launch on Mon, 18 Jul 2011 UTC launched from the Tyuratam Missile And Space Complex (TTMTR). Debris objects in space refer to the collection of defunct objects orbiting the Earth. Examples of debris include non-operational satellites, rocket bodies, and fragments generated from explosions, collisions, or faulty payload assembly.

Loading next visibility...
Identifier
46238, 2011-037JY
Orbit
LEO
Country
Flag of CISCIS
Related business
Manufacturer
Lavochkin
Mission
Spacecraft
Bus & Motor
Unknown
Mass
Unknown
Launch date (UTC)
2011-07-18 (14 years ago)
Launch vehicle
Unknown
Launch site
Tyuratam Missile And Space Complex (TTMTR)
Object type
Payload
Rocket body
Debris
Shape & HBR
Unknown shape, 0.1 m
Radar Cross Section
Medium (>0.1 m² and <1 m²)

Expand to show TLE details & history
Last TLE update: 18 hours ago

TLE from 18 hours ago
0 FREGAT DEB
1 46238U 11037JY  25341.19732857  .00021718  00000-0  13131+1 0  9990
2 46238  50.4430 320.1133 0622554  11.6719 349.7748 10.33119865201858
Epoch: 2025-12-07T04:44Z
TLE epoch observation values (Epoch: 2025-12-07T04:44:09.188Z)
Latitude
Longitude
172.86085°
Altitude
1,982.972 km
Speed
7.114 km/s
True Right ascension
21h 20m 27s
True Declination
0° 00' 00"
Sunlit
Object was in daylight at epoch
Visualization orbit readout
Latitude
Unknown
Longitude
Unknown
Altitude
Unknown
Speed
Unknown
Apparent Right ascension
Unknown
Apparent Declination
Unknown
Sunlit
N/A
Visualization observer readout
Local Sidereal Time
20:50:21
Azimuth
Unknown
Elevation
Unknown
Doppler factor
Unknown
Orbital elements
Apogee altitude
3,081.843 km
Perigee altitude
1,973.004 km
Semi-major axis
8,905.56 km
Eccentricity
0.06226
Inclination
50.443°
RAAN
320.1133°
Arg. of periapsis
11.6719°
True anomaly
348.40389°
Mean anomaly
349.7748°
Eccentric anomaly
349.10032°
Mean motion
2.58257 °/min
Orbital period
139.4 mins
BSTAR
1.3131
Loading maneuver chart data...
Computing Atmospheric mass density...
Loading historical data...
Loading historical data...
Loading historical data...
Loading historical data...
Loading historical data...
Loading historical data...
Loading historical data...

Documentation

Showing up to 5 results
|